カタログに戻る

KUIPER-00020

運用中通信LEO
NORAD 63735·PAYLOAD·🇺🇸 United States

打ち上げ Apr 28, 2025 から Cape Canaveral Space Force Station

Loading…

次のパス (今後24時間)

TLE

最新Source: CelesTrak SupGP

元期: Sep 14, 2026, 22:04 UTC

1 63735C 25088M   26257.91987269 -.00001356  00000+0 -17757-3 0  2573
2 63735  51.9022 346.3375 0000408  90.5135 170.4924 14.79930450    11

AllMySatでKUIPER-00020をリアルタイム追跡

Download on the App Store